Skip Page Navigation
NASA JPL Caltech
NASA Logo - Jet Propulsion Laboratory + View the NASA Portal
+ Center for Near-Earth Object Studies
JPL Home Earth Solar System Stars & Galaxies Technology
JPL Solar System Dynamics
BODIES ORBITS EPHEMERIDES TOOLS PHYSICAL DATA DISCOVERY FAQ SITE MAP
IMPORTANT: The SSD Announcement email list is now available. Major changes are coming in the near future, including possible hostname and/or URL changes. To be notified of such changes, subscribe to this email list.

Please visit this page for more details.


JPL Small-Body Database Browser
Search: [ help ]  
17857 Hsieh (1998 KR1)
Classification: Main-belt Asteroid          SPK-ID: 2017857
Ephemeris | Orbit Diagram | Orbital Elements | Mission Design | Physical Parameters | Discovery Circumstances ]

[ show orbit diagram ]
Orbital Elements at Epoch 2458600.5 (2019-Apr-27.0) TDB
Reference: JPL 24 (heliocentric ecliptic J2000)
 Element Value Uncertainty (1-sigma)   Units 
e .2048824502365861 5.3798e-08  
a 2.69365224710644 1.7096e-08 au
q 2.141770174633987 1.4089e-07 au
i 13.22864685910813 4.8348e-06 deg
node 50.94629815233678 2.2156e-05 deg
peri 271.3455674448368 2.5808e-05 deg
M 193.9791745660807 1.8186e-05 deg
tp 2459345.181878641743
(2021-May-10.68187864)
8.5742e-05 TDB
period 1614.770168804712
4.42
1.5373e-05
4.209e-08
d
yr
n .2229419436615428 2.1224e-09 deg/d
Q 3.245534319578893 2.0599e-08 au
  Orbit Determination Parameters
   # obs. used (total)      1435  
   data-arc span      18455 days (50.53 yr)  
   first obs. used      1968-10-23  
   last obs. used      2019-05-04  
   planetary ephem.      DE431  
   SB-pert. ephem.      SB431-N16  
   condition code      0  
   norm. resid. RMS      .50636  
   source      ORB  
   producer      Otto Matic  
   solution date      2019-May-30 02:33:20  

Additional Information
 Earth MOID = 1.17837 au 
 Jupiter MOID = 2.23935 au 
 T_jup = 3.303 
[ show covariance matrix ]

Ephemeris | Orbit Diagram | Orbital Elements | Mission Design | Physical Parameters | Discovery Circumstances ]

Physical Parameter Table
Parameter Symbol Value Units Sigma Reference Notes
absolute magnitude H 13.1   n/a MPO445394  
diameter diameter 6.531 km 0.237 urn:nasa:pds:neowise_diameters_albedos::2.0[mainbelt] (http://adsabs.harvard.edu/abs/2011ApJ...741...68M)  
geometric albedo albedo 0.217   0.047 urn:nasa:pds:neowise_diameters_albedos::2.0[mainbelt] (http://adsabs.harvard.edu/abs/2011ApJ...741...68M)  

17857 Hsieh           Discovered 1998 May 18 by the Lowell Observatory Near-Earth Object Search at the Anderson Mesa Station.
Henry H. Hsieh (b. 1978) has studied the nature of the comet-like Themis-family minor planet (7968) = 133P/Elst-Pizarro and has surveyed the main belt for examples of similar transition objects.
NOTE: some special characters may not display properly (any characters within {} are an attempt to place the proper accent above a character)
Reference: 20050721/MPCPages.arcLast Updated: 2005-07-21

Alternate Designations
 1998 KR1 = 1968 UW2 = 1999 SF4 
Ephemeris | Orbit Diagram | Orbital Elements | Mission Design | Physical Parameters | Discovery Circumstances ]
ABOUT SSD CREDITS/AWARDS PRIVACY/COPYRIGHT GLOSSARY LINKS
FirstGov 2020-Jan-27 18:45 UT
(server date/time)  
NASA Home Page
Site Manager:   Ryan S. Park
Webmaster  Alan B. Chamberlin